Wacth_Time, WatchID,Watch_Activity_leve,Watch_SD,Watch_SDn, Watch_Thresh3SD, Watch_Motion_boolean,Watch_Running_Average, Watch_Worn_boolean, Watch_WearMinutes, Watch_WearHours
2018-07-11T12:59:46,Moto360_247G,0.1528,0.2234, 0.0780001,1,1.0,1,1,0.0167
2018-07-11T13:00:47,Moto360_247G,0.1622,0.3071, 0.0780001,1,1.0,1,2,0.0333
2018-07-11T13:01:47,Moto360_247G,0.1347,0.0464, 0.0780001,0,0.6667,1,3,0.05
2018-07-11T13:02:47,Moto360_247G,0.1013,0.0427, 0.0780001,0,0.5,1,4,0.0667
2018-07-11T13:03:49,Moto360_247G,0.0763,0.0148, 0.0780001,0,0.4,1,5,0.0833
2018-07-11T13:04:50,Moto360_247G,0.0693,0.0081, 0.0780001,0,0.3333,1,6,0.1
2018-07-11T13:05:50,Moto360_247G,0.0672,0.0116, 0.0780001,0,0.2857,1,7,0.1167
2018-07-11T13:07:02,Moto360_247G,0.0495,0.0076, 0.0780001,0,0.25,1,8,0.1333
2018-07-11T13:08:02,Moto360_247G,0.0389,0.0078, 0.0780001,0,0.2222,1,9,0.15
2018-07-11T13:09:02,Moto360_247G,0.1091,0.1359, 0.0780001,1,0.3,1,10,0.1667
2018-07-11T13:10:02,Moto360_247G,0.1202,0.0564, 0.0780001,0,0.2,1,11,0.1833
2018-07-11T13:11:02,Moto360_247G,0.1289,0.2246, 0.0780001,1,0.2,1,12,0.2
2018-07-11T13:12:02,Moto360_247G,0.0731,0.0063, 0.0780001,0,0.2,1,13,0.2167
2018-07-11T13:13:02,Moto360_247G,0.0754,0.017, 0.0780001,0,0.2,1,14,0.2333
2018-07-11T13:14:02,Moto360_247G,0.1385,0.3101, 0.0780001,1,0.3,1,15,0.25
2018-07-11T13:15:02,Moto360_247G,0.1506,0.1438, 0.0780001,1,0.4,1,16,0.2667
2018-07-11T13:16:02,Moto360_247G,0.2667,0.3628, 0.0780001,1,0.5,1,17,0.2833
2018-07-11T13:17:02,Moto360_247G,0.1331,0.007, 0.0780001,0,0.5,1,18,0.3
2018-07-11T13:18:02,Moto360_247G,0.1338,0.0067, 0.0780001,0,0.5,1,19,0.3167
2018-07-11T13:19:02,Moto360_247G,0.139,0.0104, 0.0780001,0,0.4,1,20,0.3333
2018-07-11T13:20:02,Moto360_247G,0.1502,0.1398, 0.0780001,1,0.5,1,21,0.35
2018-07-11T13:21:02,Moto360_247G,0.1404,0.0338, 0.0780001,0,0.4,1,22,0.3667
2018-07-11T13:22:02,Moto360_247G,0.144,0.0314, 0.0780001,0,0.4,1,23,0.3833
2018-07-11T13:23:03,Moto360_247G,0.1182,0.0425, 0.0780001,0,0.4,1,24,0.4
2018-07-11T13:24:03,Moto360_247G,0.1193,0.0467, 0.0780001,0,0.3,1,25,0.4167
2018-07-11T13:25:03,Moto360_247G,0.1021,0.009, 0.0780001,0,0.2,1,26,0.4333
2018-07-11T13:26:03,Moto360_247G,0.1119,0.0641, 0.0780001,0,0.1,1,27,0.45
2018-07-11T13:27:03,Moto360_247G,0.138,0.0567, 0.0780001,0,0.1,1,28,0.4667
2018-07-11T13:28:11,Moto360_247G,0.1477,0.0106, 0.0780001,0,0.1,1,29,0.4833
2018-07-11T13:29:11,Moto360_247G,0.1629,0.011, 0.0780001,0,0.1,1,30,0.5
2018-07-11T13:30:11,Moto360_247G,0.1787,0.0533, 0.0780001,0,0.0,0,30,0.5
2018-07-11T13:31:14,Moto360_247G,0.1392,0.0401, 0.0780001,0,0.0,0,30,0.5
2018-07-11T13:32:17,Moto360_247G,0.1293,0.0177, 0.0780001,0,0.0,0,30,0.5
2018-07-11T13:33:20,Moto360_247G,0.1218,0.0095, 0.0780001,0,0.0,0,30,0.5
2018-07-11T13:34:28,Moto360_247G,0.1232,0.0066, 0.0780001,0,0.0,0,30,0.5
2018-07-11T13:40:18,Moto360_247G,0.1258,0.4862, 0.0780001,1,1.0,1,1,0.0167
2018-07-11T13:47:11,Moto360_247G,0.0325,0.0081, 0.0780001,0,0.5,1,2,0.0333
2018-07-11T13:49:13,Moto360_247G,0.1777,0.348, 0.0780001,1,1.0,1,1,0.0167
2018-07-11T13:50:14,Moto360_247G,0.2366,0.2991, 0.0780001,1,1.0,1,2,0.0333
2018-07-11T13:51:16,Moto360_247G,0.2456,0.7265, 0.0780001,1,1.0,1,3,0.05
2018-07-11T13:52:18,Moto360_247G,0.2618,0.3516, 0.0780001,1,1.0,1,4,0.0667
2018-07-11T13:53:19,Moto360_247G,0.1739,0.1382, 0.0780001,1,1.0,1,5,0.0833
2018-07-11T13:54:21,Moto360_247G,0.1413,0.1195, 0.0780001,1,1.0,1,6,0.1
2018-07-11T13:55:22,Moto360_247G,0.2871,0.3853, 0.0780001,1,1.0,1,7,0.1167
2018-07-11T13:56:22,Moto360_247G,0.1012,0.0078, 0.0780001,0,0.875,1,8,0.1333
2018-07-11T13:57:22,Moto360_247G,0.0927,0.032, 0.0780001,0,0.7778,1,9,0.15
2018-07-11T13:58:26,Moto360_247G,0.1651,0.0183, 0.0780001,0,0.7,1,10,0.1667
2018-07-11T13:59:26,Moto360_247G,0.1159,0.0605, 0.0780001,0,0.6,1,11,0.1833
2018-07-11T14:00:26,Moto360_247G,0.0898,0.0087, 0.0780001,0,0.5,1,12,0.2
2018-07-11T14:01:27,Moto360_247G,0.0844,0.0941, 0.0780001,1,0.5,1,13,0.2167
2018-07-11T14:18:11,Moto360_247G,0.2258,0.2742, 0.0780001,1,1.0,1,1,0.0167
2018-07-11T14:19:11,Moto360_247G,0.058,0.0878, 0.0780001,1,1.0,1,2,0.0333
2018-07-11T14:20:12,Moto360_247G,0.0645,0.0744, 0.0780001,0,0.6667,1,3,0.05
2018-07-11T14:21:14,Moto360_247G,0.1594,0.5018, 0.0780001,1,0.75,1,4,0.0667
2018-07-11T14:22:14,Moto360_247G,0.0854,0.0105, 0.0780001,0,0.6,1,5,0.0833
2018-07-11T14:23:23,Moto360_247G,0.0876,0.0745, 0.0780001,0,0.5,1,6,0.1
2018-07-11T14:24:28,Moto360_247G,0.0505,0.0156, 0.0780001,0,0.4286,1,7,0.1167
2018-07-11T14:25:34,Moto360_247G,0.0499,0.0064, 0.0780001,0,0.375,1,8,0.1333
2018-07-11T14:34:44,Moto360_247G,0.2223,0.3317, 0.0780001,1,1.0,1,1,0.0167
2018-07-11T14:35:44,Moto360_247G,0.1201,0.1985, 0.0780001,1,1.0,1,2,0.0333
2018-07-11T14:36:44,Moto360_247G,0.0596,0.0453, 0.0780001,0,0.6667,1,3,0.05
2018-07-11T14:37:48,Moto360_247G,0.0522,0.0376, 0.0780001,0,0.5,1,4,0.0667
2018-07-11T14:38:48,Moto360_247G,0.0574,0.064, 0.0780001,0,0.4,1,5,0.0833
2018-07-11T14:39:51,Moto360_247G,0.0599,0.042, 0.0780001,0,0.3333,1,6,0.1
2018-07-11T14:40:51,Moto360_247G,0.1173,0.3052, 0.0780001,1,0.4286,1,7,0.1167
2018-07-11T14:41:51,Moto360_247G,0.1015,0.0364, 0.0780001,0,0.375,1,8,0.1333
2018-07-11T14:42:52,Moto360_247G,0.122,0.0914, 0.0780001,1,0.4444,1,9,0.15
2018-07-11T14:43:55,Moto360_247G,0.1308,0.0094, 0.0780001,0,0.4,1,10,0.1667
2018-07-11T14:44:58,Moto360_247G,0.1186,0.0068, 0.0780001,0,0.3,1,11,0.1833
2018-07-11T14:46:01,Moto360_247G,0.0851,0.027, 0.0780001,0,0.2,1,12,0.2
2018-07-11T14:47:04,Moto360_247G,0.0642,0.0093, 0.0780001,0,0.2,1,13,0.2167
2018-07-11T14:50:53,Moto360_247G,0.0886,0.0129, 0.0780001,0,0.0,0,0,0.0
2018-07-11T14:51:53,Moto360_247G,0.0948,0.0156, 0.0780001,0,0.0,0,0,0.0
2018-07-11T14:53:00,Moto360_247G,0.0466,0.0249, 0.0780001,0,0.0,0,0,0.0
2018-07-11T14:54:00,Moto360_247G,0.1372,0.0439, 0.0780001,0,0.0,0,0,0.0
2018-07-11T14:55:00,Moto360_247G,0.1459,0.02, 0.0780001,0,0.0,0,0,0.0
2018-07-11T14:56:00,Moto360_247G,0.1982,0.6225, 0.0780001,1,0.1667,1,1,0.0167
2018-07-11T14:57:00,Moto360_247G,0.1213,0.0767, 0.0780001,0,0.1429,1,2,0.0333
2018-07-11T14:58:00,Moto360_247G,0.1424,0.0411, 0.0780001,0,0.125,1,3,0.05
2018-07-11T14:59:00,Moto360_247G,0.0955,0.0313, 0.0780001,0,0.1111,1,4,0.0667
2018-07-11T15:00:01,Moto360_247G,0.1338,0.0129, 0.0780001,0,0.1,1,5,0.0833
2018-07-11T15:05:39,Moto360_247G,0.186,0.752, 0.0780001,1,1.0,1,1,0.0167
2018-07-11T15:06:39,Moto360_247G,0.0998,0.0411, 0.0780001,0,0.5,1,2,0.0333
2018-07-11T15:07:39,Moto360_247G,0.073,0.0462, 0.0780001,0,0.3333,1,3,0.05
2018-07-11T15:08:39,Moto360_247G,0.0668,0.0415, 0.0780001,0,0.25,1,4,0.0667
2018-07-11T15:09:39,Moto360_247G,0.0941,0.0236, 0.0780001,0,0.2,1,5,0.0833
2018-07-11T15:22:52,Moto360_247G,0.0454,0.0968, 0.0780001,1,1.0,1,1,0.0167
2018-07-11T15:23:54,Moto360_247G,0.0874,0.0647, 0.0780001,0,0.5,1,2,0.0333
2018-07-11T15:25:01,Moto360_247G,0.1614,0.0321, 0.0780001,0,0.3333,1,3,0.05
2018-07-11T15:33:19,Moto360_247G,0.0976,0.1892, 0.0780001,1,1.0,1,1,0.0167
2018-07-11T15:34:19,Moto360_247G,0.08,0.0414, 0.0780001,0,0.5,1,2,0.0333
2018-07-11T15:38:37,Moto360_247G,0.0969,0.0799, 0.0780001,1,1.0,1,1,0.0167
2018-07-11T15:39:41,Moto360_247G,0.0785,0.0094, 0.0780001,0,0.5,1,2,0.0333
2018-07-11T15:40:45,Moto360_247G,0.1231,0.0362, 0.0780001,0,0.3333,1,3,0.05
2018-07-11T15:48:38,Moto360_247G,0.3073,0.7385, 0.0780001,1,1.0,1,1,0.0167
2018-07-11T15:49:40,Moto360_247G,0.244,0.339, 0.0780001,1,1.0,1,2,0.0333
2018-07-11T15:50:41,Moto360_247G,0.3765,0.4696, 0.0780001,1,1.0,1,3,0.05
2018-07-11T15:51:42,Moto360_247G,0.118,0.148, 0.0780001,1,1.0,1,4,0.0667
2018-07-11T15:52:42,Moto360_247G,0.2791,0.432, 0.0780001,1,1.0,1,5,0.0833
2018-07-11T15:53:43,Moto360_247G,0.3404,0.4878, 0.0780001,1,1.0,1,6,0.1
2018-07-11T15:54:43,Moto360_247G,0.4948,0.6273, 0.0780001,1,1.0,1,7,0.1167
2018-07-11T15:55:43,Moto360_247G,0.2127,0.2089, 0.0780001,1,1.0,1,8,0.1333
2018-07-11T15:56:43,Moto360_247G,0.2235,0.3062, 0.0780001,1,1.0,1,9,0.15
2018-07-11T15:57:43,Moto360_247G,0.1118,0.0364, 0.0780001,0,0.9,1,10,0.1667
2018-07-11T16:00:51,Moto360_247G,0.2085,0.3359, 0.0780001,1,1.0,1,1,0.0167
2018-07-11T16:01:52,Moto360_247G,0.2013,0.2855, 0.0780001,1,1.0,1,2,0.0333
2018-07-11T16:02:53,Moto360_247G,0.0802,0.108, 0.0780001,1,1.0,1,3,0.05
2018-07-11T16:03:54,Moto360_247G,0.1544,0.1921, 0.0780001,1,1.0,1,4,0.0667
2018-07-11T16:04:54,Moto360_247G,0.146,0.0063, 0.0780001,0,0.8,1,5,0.0833
2018-07-11T16:06:02,Moto360_247G,0.2175,0.3207, 0.0780001,1,0.8333,1,6,0.1
2018-07-11T16:07:02,Moto360_247G,0.2148,0.3122, 0.0780001,1,0.8571,1,7,0.1167
2018-07-11T16:08:02,Moto360_247G,0.1766,0.2043, 0.0780001,1,0.875,1,8,0.1333
2018-07-11T16:09:02,Moto360_247G,0.1611,0.1415, 0.0780001,1,0.8889,1,9,0.15
2018-07-11T16:10:02,Moto360_247G,0.5273,0.7014, 0.0780001,1,0.9,1,10,0.1667
2018-07-11T16:11:03,Moto360_247G,0.1416,0.0069, 0.0780001,0,0.8,1,11,0.1833
2018-07-11T16:20:57,Moto360_247G,0.1808,0.2024, 0.0780001,1,1.0,1,1,0.0167
2018-07-11T16:21:59,Moto360_247G,0.1053,0.0386, 0.0780001,0,0.5,1,2,0.0333
2018-07-11T16:23:31,Moto360_247G,0.1004,0.2412, 0.0780001,1,0.6667,1,3,0.05
2018-07-11T16:24:31,Moto360_247G,0.1892,0.2958, 0.0780001,1,0.75,1,4,0.0667
2018-07-11T16:25:31,Moto360_247G,0.2675,0.3758, 0.0780001,1,0.8,1,5,0.0833
2018-07-11T16:26:31,Moto360_247G,0.1159,0.008, 0.0780001,0,0.6667,1,6,0.1
2018-07-11T16:27:31,Moto360_247G,0.1233,0.0094, 0.0780001,0,0.5714,1,7,0.1167
2018-07-11T16:28:31,Moto360_247G,0.1209,0.0071, 0.0780001,0,0.5,1,8,0.1333
2018-07-11T16:29:32,Moto360_247G,0.3406,0.4582, 0.0780001,1,0.5556,1,9,0.15
2018-07-11T16:30:32,Moto360_247G,0.2635,0.2456, 0.0780001,1,0.6,1,10,0.1667
2018-07-11T16:31:32,Moto360_247G,0.2581,0.2615, 0.0780001,1,0.6,1,11,0.1833
2018-07-11T16:32:33,Moto360_247G,0.0783,0.0607, 0.0780001,0,0.6,1,12,0.2
2018-07-11T16:33:34,Moto360_247G,0.0408,0.0168, 0.0780001,0,0.5,1,13,0.2167
2018-07-11T16:34:35,Moto360_247G,0.1633,0.2494, 0.0780001,1,0.5,1,14,0.2333
2018-07-11T16:35:35,Moto360_247G,0.2251,0.3699, 0.0780001,1,0.5,1,15,0.25
2018-07-11T16:36:39,Moto360_247G,0.0979,0.018, 0.0780001,0,0.5,1,16,0.2667
2018-07-11T16:37:39,Moto360_247G,0.0934,0.01, 0.0780001,0,0.5,1,17,0.2833
2018-07-11T16:38:40,Moto360_247G,0.0898,0.0121, 0.0780001,0,0.5,1,18,0.3
2018-07-11T16:39:40,Moto360_247G,0.072,0.007, 0.0780001,0,0.4,1,19,0.3167
2018-07-11T16:40:41,Moto360_247G,0.0723,0.0065, 0.0780001,0,0.3,1,20,0.3333
2018-07-11T16:41:42,Moto360_247G,0.0824,0.0113, 0.0780001,0,0.2,1,21,0.35
2018-07-11T16:42:42,Moto360_247G,0.0868,0.0072, 0.0780001,0,0.2,1,22,0.3667
2018-07-11T16:43:42,Moto360_247G,0.0859,0.0072, 0.0780001,0,0.2,1,23,0.3833
2018-07-11T16:44:42,Moto360_247G,0.1522,0.4139, 0.0780001,1,0.2,1,24,0.4
2018-07-11T16:47:08,Moto360_247G,0.0734,0.0174, 0.0780001,0,0.1,1,25,0.4167
2018-07-11T16:48:33,Moto360_247G,0.0644,0.0402, 0.0780001,0,0.1,1,26,0.4333
2018-07-11T16:49:33,Moto360_247G,0.0629,0.0221, 0.0780001,0,0.1,1,27,0.45
2018-07-11T16:50:33,Moto360_247G,0.073,0.0207, 0.0780001,0,0.1,1,28,0.4667
2018-07-11T16:51:33,Moto360_247G,0.2566,0.3115, 0.0780001,1,0.2,1,29,0.4833
2018-07-11T16:52:33,Moto360_247G,0.2067,0.2796, 0.0780001,1,0.3,1,30,0.5
2018-07-11T16:53:33,Moto360_247G,0.1445,0.1199, 0.0780001,1,0.4,1,31,0.5167
2018-07-11T16:54:33,Moto360_247G,0.1203,0.0142, 0.0780001,0,0.4,1,32,0.5333
2018-07-11T16:55:33,Moto360_247G,0.1401,0.156, 0.0780001,1,0.5,1,33,0.55
2018-07-11T17:11:48,Moto360_247G,0.2278,0.3585, 0.0780001,1,1.0,1,1,0.0167
2018-07-11T17:12:49,Moto360_247G,0.1132,0.0221, 0.0780001,0,0.5,1,2,0.0333
2018-07-11T17:13:50,Moto360_247G,0.1042,0.0109, 0.0780001,0,0.3333,1,3,0.05
2018-07-11T17:14:50,Moto360_247G,0.2787,0.3829, 0.0780001,1,0.5,1,4,0.0667
2018-07-11T17:15:50,Moto360_247G,0.1398,0.1707, 0.0780001,1,0.6,1,5,0.0833
2018-07-11T17:19:54,Moto360_247G,0.2152,0.2971, 0.0780001,1,1.0,1,1,0.0167
2018-07-11T17:20:56,Moto360_247G,0.0849,0.0142, 0.0780001,0,0.5,1,2,0.0333
2018-07-11T17:21:58,Moto360_247G,0.0824,0.0109, 0.0780001,0,0.3333,1,3,0.05
2018-07-11T17:22:58,Moto360_247G,0.4635,0.5991, 0.0780001,1,0.5,1,4,0.0667
2018-07-11T17:23:58,Moto360_247G,0.2028,0.3031, 0.0780001,1,0.6,1,5,0.0833
2018-07-11T17:25:00,Moto360_247G,0.247,0.3201, 0.0780001,1,0.6667,1,6,0.1
2018-07-11T17:26:00,Moto360_247G,0.0574,0.0742, 0.0780001,0,0.5714,1,7,0.1167
